Dewpoint
6 8 11 9 11 13 14 16 14 13 14 14 20 25 27 30 32 32 32 33 34 35 35 36 35 36 35 35 35 35 32 32 34 35 33 33 34 34 34 34 33 32 33 33
11 7 11 12 12 15 13 14 11 11 15 16 19 26 29 30 31 31 32 32 33 34 35 35 35 35 35 35 34 33 32 32 34 35 33 33 33 34 34 34 33 32 32 33
12 9 5 8 13 15 14 13 13 13 15 23 28 28 29 30 30 30 31 32 33 34 35 35 35 35 35 35 34 33 32 33 33 34 33 33 32 32 33 33 34 33 33 33
19 11 8 8 11 11 19 19 18 17 18 24 24 26 28 29 29 30 31 31 32 34 35 35 35 35 35 35 34 33 32 32 33 33 33 33 31 30 32 33 34 33 34 34
23 16 9 10 14 11 11 13 19 21 20 23 24 25 28 29 29 30 31 32 33 34 34 35 35 35 35 34 33 32 30 31 32 33 32 33 32 33 32 32 33 33 33 34
26 17 11 7 11 18 15 13 15 18 18 24 27 24 22 30 30 31 32 32 33 34 34 35 35 35 35 34 33 31 30 30 31 32 31 32 31 33 32 32 32 31 31 34
24 22 13 25 25 22 16 14 15 21 20 26 26 21 20 26 31 32 33 33 33 34 34 35 35 35 34 34 33 32 30 31 31 32 31 31 31 31 32 31 30 31 31 32
25 22 16 31 22 22 30 32 25 26 23 29 29 30 30 30 31 32 32 34 34 34 34 35 35 35 34 34 34 33 32 31 31 32 31 31 32 32 31 30 31 32 31 31
31 29 32 32 32 33 32 32 30 27 28 31 31 30 27 26 30 32 32 33 34 34 34 35 36 35 34 35 35 34 33 33 32 33 32 31 32 32 31 31 32 31 30 30
27 31 32 33 32 34 32 32 32 29 26 28 28 29 28 26 26 30 31 33 33 34 34 35 36 36 35 35 35 35 34 34 33 33 33 32 32 31 31 33 33 32 31 31
32 33 33 33 34 35 33 33 32 27 27 26 26 26 26 26 25 27 29 32 33 33 34 35 36 36 36 35 36 35 35 35 34 35 34 33 32 33 32 35 34 34 32 32
26 31 33 35 36 38 34 33 32 32 26 25 25 25 25 26 28 29 30 32 33 33 34 35 36 36 35 35 36 35 35 35 37 39 37 35 35 36 32 35 34 32 32 32
30 35 36 31 40 37 38 35 32 32 33 31 29 25 25 26 28 30 31 33 33 33 34 35 35 35 35 36 37 36 35 36 38 39 39 39 37 37 35 32 31 30 28 29
26 33 33 29 26 34 38 37 32 32 34 34 34 32 32 29 30 30 31 32 33 33 34 35 35 35 35 36 37 36 35 35 38 40 39 39 36 37 35 34 31 31 30 29
19 31 36 32 28 26 36 39 34 32 32 33 34 33 34 33 33 32 32 33 33 34 34 35 35 35 36 38 37 36 36 36 38 40 40 39 37 37 36 34 32 32 33 30
26 30 29 34 27 29 33 38 37 34 34 34 33 35 34 34 34 34 33 33 33 33 34 35 35 35 36 38 37 37 37 36 39 41 40 39 38 37 36 35 33 34 33 32
21 21 21 19 31 26 31 31 38 37 36 33 32 30 31 34 34 34 34 35 34 33 34 35 35 35 37 38 37 39 40 39 39 41 40 38 37 36 36 35 35 34 34 35
15 16 16 18 22 30 28 34 30 33 37 36 35 35 32 29 33 34 35 36 37 36 36 37 36 37 38 38 38 41 42 40 39 40 40 39 38 37 36 35 35 34 34 35
17 17 19 20 21 29 30 34 29 29 30 35 36 36 33 32 31 33 32 33 34 36 36 37 36 37 37 39 39 43 41 39 39 40 40 38 38 38 37 36 35 35 35 35
26 28 28 29 30 30 31 29 26 25 21 24 28 31 29 27 29 33 31 28 29 32 36 36 36 36 37 38 38 41 41 39 38 39 40 38 38 38 37 36 36 37 38 36
19 20 23 23 23 25 25 24 24 25 23 25 21 22 26 27 27 28 33 28 27 28 35 37 37 38 37 37 38 40 40 39 39 39 38 38 39 38 38 37 37 38 37 37
22 21 21 22 21 22 24 27 26 23 23 23 23 23 26 23 27 27 27 29 30 28 31 31 34 34 37 35 36 39 39 38 38 38 39 39 39 39 38 38 38 37 36 36
19 21 22 24 24 23 24 26 26 25 22 24 25 25 25 27 28 26 26 26 27 27 28 30 30 33 33 37 39 39 39 39 39 39 39 39 39 37 37 37 37 37 36 35
19 20 21 23 23 22 22 24 27 25 27 27 26 29 27 26 29 29 30 29 28 28 28 31 29 29 32 39 38 39 38 38 38 39 38 38 37 37 37 37 36 36 36 36
22 22 22 22 21 21 22 23 24 25 25 26 26 26 28 28 27 30 29 30 29 28 30 31 28 28 34 38 39 39 39 38 38 37 38 37 36 36 36 37 37 36 35 36
23 23 24 25 26 26 26 27 27 27 27 27 27 29 30 31 30 30 30 30 28 28 28 32 33 32 34 34 37 39 39 38 37 37 37 37 36 36 36 36 36 36 35 35
26 27 26 27 27 27 27 27 27 27 27 28 29 29 29 30 30 30 29 30 30 30 31 34 34 34 33 34 35 36 37 38 38 37 38 37 37 36 36 36 36 36 35 35
Wind_Speed
32 18 15 23 29 31 35 33 30 22 27 21 18 17 14 15 18 20 24 27 30 31 31 30 29 27 25 23 23 22 21 20 19 17 16 15 14 13 12 11 10 9 8 7
25 27 17 22 25 32 35 33 33 27 23 22 20 13 16 19 22 24 26 27 29 29 31 33 32 29 27 25 24 23 22 21 19 18 17 16 15 15 13 12 11 10 9 8
23 25 28 26 21 25 32 33 32 30 19 16 18 20 21 23 25 27 28 30 31 33 34 33 33 31 30 28 25 25 23 21 21 19 18 17 16 15 15 13 11 10 9 8
6 16 27 24 25 22 17 22 18 25 20 23 23 25 24 23 26 25 25 27 27 28 30 31 31 30 28 26 26 25 24 23 21 21 20 18 18 16 14 13 12 11 10 8
6 19 9 13 12 20 23 21 20 22 16 18 12 16 15 20 21 24 27 28 29 29 30 32 32 30 30 29 27 26 25 24 23 22 21 20 19 16 15 13 13 11 10 10
3 11 19 16 11 10 18 27 23 21 21 18 17 19 18 24 22 18 19 22 24 27 28 30 32 32 31 30 29 28 27 25 24 23 22 21 19 18 15 14 12 11 10 9
14 7 5 8 9 5 17 7 17 22 21 22 23 20 17 19 20 20 19 21 22 24 28 30 32 32 32 31 30 28 26 24 24 23 23 21 19 17 16 15 12 12 11 10
9 8 9 17 2 4 9 12 7 14 21 24 23 8 10 12 18 20 21 23 24 25 27 29 32 32 33 31 29 28 27 26 25 24 21 20 20 18 17 16 14 13 13 11
4 1 6 8 8 11 11 12 9 6 13 16 17 9 8 10 11 17 20 21 24 25 27 28 31 32 34 31 29 28 27 26 25 24 23 21 21 20 18 17 15 14 14 12
7 5 1 8 14 18 17 14 13 8 4 13 13 10 9 10 10 14 18 21 23 23 26 28 30 32 31 31 30 30 29 27 25 25 23 21 20 19 18 17 16 15 14 12
5 5 6 3 19 20 19 18 16 8 4 6 9 9 7 7 8 10 13 18 22 25 26 28 29 31 31 31 30 31 29 28 26 23 25 22 21 19 19 18 17 16 14 12
5 11 10 8 18 18 17 20 17 11 8 8 7 8 8 7 5 7 12 16 20 22 22 24 27 28 29 30 31 30 29 26 23 21 22 21 20 14 6 5 14 8 6 8
8 17 11 14 7 18 17 15 14 13 10 7 7 6 7 7 6 2 7 14 17 20 20 20 24 27 29 31 31 31 29 28 24 23 23 22 21 20 20 5 5 10 9 10
10 13 5 14 11 11 17 14 14 14 12 12 11 9 8 7 7 6 1 6 11 14 17 19 23 25 27 28 30 30 29 27 25 24 24 23 23 21 19 19 18 14 9 11
11 3 6 9 12 13 4 10 8 16 19 18 15 13 12 11 10 9 6 1 5 10 14 17 21 24 26 27 30 29 27 24 23 23 23 23 21 20 18 18 17 16 14 12
3 2 6 7 10 12 13 5 7 12 15 18 20 19 14 12 12 11 11 7 3 6 10 15 18 19 23 26 28 26 27 26 25 23 21 21 20 20 19 19 18 18 17 17
8 8 2 6 7 9 11 14 6 9 11 13 17 20 20 15 16 16 13 10 6 3 3 9 13 16 20 23 25 21 20 20 23 21 21 22 22 22 21 20 19 19 18 17
15 15 11 8 6 7 10 11 14 10 6 7 9 15 20 22 19 17 16 13 10 12 11 6 6 11 16 21 23 19 19 19 22 22 20 21 22 21 20 20 20 19 17 15
9 10 8 7 8 3 6 6 10 9 8 7 8 11 15 15 15 14 17 20 19 16 17 10 4 9 13 16 19 16 18 19 21 20 20 21 20 20 21 21 20 19 18 16
11 9 7 6 5 7 6 5 4 6 9 10 10 11 14 16 16 12 13 19 16 13 14 10 3 4 7 11 16 15 17 18 21 19 19 21 22 21 21 21 21 20 19 18
12 11 11 11 11 8 6 4 3 7 8 9 12 13 10 11 15 14 11 12 14 17 16 13 8 3 1 6 15 12 14 16 18 19 19 20 20 21 20 21 21 20 19 18
8 7 5 4 3 2 1 2 2 4 6 6 7 10 9 11 11 13 7 6 9 13 12 13 14 9 3 6 11 10 13 16 17 17 18 19 19 20 20 20 21 20 19 18
10 8 5 4 4 6 5 4 3 4 6 6 7 7 7 7 6 6 10 10 11 10 9 9 12 8 2 3 5 8 11 13 14 15 15 17 17 18 19 21 20 20 20 19
8 9 10 9 7 7 9 7 5 7 7 10 10 6 9 10 10 6 8 10 13 16 11 6 9 7 2 3 5 7 9 10 11 12 13 15 16 17 17 18 19 19 18 19
7 8 9 10 12 12 13 12 12 13 14 15 14 14 13 11 11 14 12 11 13 13 12 13 12 6 4 6 6 6 8 9 11 12 12 14 15 17 16 17 18 18 18 19
10 10 11 10 10 11 13 15 16 16 16 18 18 16 15 14 15 15 15 15 15 14 14 12 10 9 8 9 9 8 8 9 10 13 13 14 15 16 17 18 18 19 19 19
9 6 11 12 13 15 16 16 18 21 20 20 22 19 19 19 19 18 19 17 17 16 15 13 11 11 11 12 11 9 9 10 11 12 13 13 14 14 15 17 18 18 18 19
Wind_Direction
228 245 230 210 215 208 215 218 219 215 222 210 210 206 185 173 171 173 178 180 184 185 184 181 178 177 177 177 177 177 177 178 176 174 172 167 167 169 171 176 174 170 163 160
230 234 235 224 217 211 218 215 224 226 219 224 202 180 168 170 174 180 185 186 186 188 186 184 180 179 177 177 179 178 180 181 177 175 172 173 174 174 174 179 176 174 174 173
226 222 231 237 229 223 220 219 219 220 224 179 184 184 182 177 181 185 188 188 187 189 189 185 182 179 178 179 177 181 181 182 180 178 178 178 178 178 182 182 176 181 183 184
234 202 219 238 231 232 226 224 212 225 202 192 195 199 194 190 184 186 187 187 188 189 189 187 182 181 177 176 179 182 183 184 182 182 183 181 181 183 182 182 184 186 188 190
207 204 219 196 200 211 215 218 212 217 206 199 206 205 198 196 197 196 189 187 187 188 187 184 182 179 176 179 181 183 186 186 185 184 185 183 183 184 183 184 187 190 191 193
235 200 206 216 185 201 214 224 204 209 211 187 175 195 209 198 202 194 189 188 184 183 183 183 183 178 180 182 182 186 190 188 186 186 187 186 184 184 183 188 188 189 192 195
228 243 188 15 315 201 198 217 196 201 203 190 191 207 202 189 189 191 186 183 179 181 183 186 181 180 185 184 186 187 185 187 188 187 189 187 184 181 184 187 187 190 193 193
216 212 218 358 295 264 339 316 318 231 203 191 196 150 157 172 181 181 182 179 181 180 185 185 184 184 188 188 186 184 183 186 188 188 187 185 183 181 186 188 189 192 196 195
266 101 14 25 34 358 340 318 324 298 218 210 193 167 183 151 168 185 188 185 185 185 183 186 189 190 191 187 184 182 183 186 187 187 188 186 184 183 187 190 193 196 200 201
149 236 349 38 27 6 2 346 326 316 261 196 194 203 205 208 187 184 189 190 187 187 186 188 192 195 196 188 181 181 183 186 187 187 186 188 189 188 188 192 197 200 200 202
282 43 294 111 18 357 1 6 356 4 44 136 136 130 142 155 181 190 190 187 189 193 194 193 190 193 196 192 182 183 184 186 186 186 186 187 190 190 193 197 197 198 203 200
338 356 334 334 338 352 11 14 356 11 34 46 97 113 115 105 116 173 186 190 193 199 200 196 192 192 193 190 186 185 185 186 183 180 184 185 183 177 84 171 184 188 179 195
321 321 321 355 295 351 358 351 358 25 25 20 36 60 74 85 77 106 189 193 202 205 204 197 194 193 192 189 187 190 188 182 179 179 181 179 181 180 185 162 156 188 192 187
321 334 348 3 352 330 327 340 23 27 32 32 23 38 45 49 57 60 138 210 204 205 205 199 196 198 193 188 189 192 191 183 180 182 182 182 186 188 186 184 188 190 200 188
275 18 328 347 347 359 318 316 16 36 35 32 27 29 35 40 36 39 42 96 194 200 203 203 202 200 192 186 190 190 190 185 186 186 185 185 184 184 183 182 187 186 179 191
326 319 4 357 352 351 0 5 16 26 28 36 34 28 32 45 46 41 43 50 139 194 207 207 208 205 192 190 192 191 193 186 183 181 177 176 177 177 180 182 185 186 189 191
251 244 236 315 316 326 13 16 10 22 12 30 46 44 35 39 45 35 25 22 23 358 253 225 220 204 191 193 195 192 192 179 179 176 177 179 178 181 183 182 185 190 196 188
243 262 273 272 267 348 12 15 20 20 17 9 16 48 46 39 41 35 32 33 51 55 31 336 254 206 193 197 196 190 187 178 180 180 175 179 183 183 183 184 187 190 190 182
253 262 264 253 239 182 331 30 16 12 25 35 52 54 54 42 42 47 39 40 32 19 359 348 289 219 202 202 197 187 184 178 185 187 182 179 178 180 182 184 186 186 181 174
61 66 87 94 118 140 141 116 106 55 35 52 54 51 49 37 21 21 49 46 27 6 357 14 39 210 212 187 186 186 188 186 188 187 183 181 181 180 184 184 182 181 175 177
52 60 66 75 79 75 77 81 81 67 54 48 61 57 49 38 25 7 22 41 19 9 7 20 27 26 204 181 179 187 195 191 193 188 184 185 182 182 182 180 179 176 178 179
48 57 68 61 39 37 338 338 11 12 30 39 41 35 33 38 18 11 6 15 1 8 9 9 7 358 340 170 193 189 200 199 200 196 191 187 182 181 178 175 179 179 180 179
31 35 27 0 317 312 300 287 264 291 320 331 339 351 354 341 341 350 333 336 339 346 355 358 355 359 348 209 201 213 208 202 200 196 187 184 182 183 184 184 183 179 178 179
1 353 347 341 329 307 302 309 288 287 278 287 295 277 303 311 307 295 287 301 310 325 331 330 339 343 278 277 234 220 216 212 204 189 185 182 182 182 187 184 184 185 182 179
319 318 315 315 311 305 302 301 296 290 288 287 288 292 290 284 278 293 295 292 294 303 301 303 314 323 300 278 261 230 219 214 202 196 192 188 185 188 187 188 189 186 182 181
301 305 308 303 298 299 297 297 292 292 292 290 287 287 285 282 280 278 280 280 282 280 280 284 280 284 286 277 261 246 236 224 209 206 198 197 191 192 190 189 187 186 187 184
287 288 295 302 302 302 300 299 296 289 290 289 289 288 286 284 282 277 275 272 271 271 268 260 259 261 266 269 263 249 235 236 219 208 200 197 196 199 197 195 192 189 186 181